Cottonwood Lake Weather Center

Moon Phase Calendar



Cottonwood Lake Water Level
Online Cameras

 


      

Current Conditions in Lakes
5/12/2021 2:43:33 AM

40°F
Feels Like 40
Rain
Humidity
100%
Pressure
30.12"
Wind
1.7 mph (WNW)
Dew Point
40°F
UV Index
0/10 (Low)
Visibility
6 mi

Hourly Forecast

Date & Time Wed, May 12
2:00 AM
Wed, May 12
3:00 AM
Wed, May 12
4:00 AM
Wed, May 12
5:00 AM
Wed, May 12
6:00 AM
Wed, May 12
7:00 AM
Wed, May 12
8:00 AM
Wed, May 12
9:00 AM
Wed, May 12
10:00 AM
Wed, May 12
11:00 AM
Wed, May 12
12:00 PM
Wed, May 12
1:00 PM
Wed, May 12
2:00 PM
Wed, May 12
3:00 PM
Wed, May 12
4:00 PM
Wed, May 12
5:00 PM
Wed, May 12
6:00 PM
Wed, May 12
7:00 PM
Wed, May 12
8:00 PM
Wed, May 12
9:00 PM
Wed, May 12
10:00 PM
Wed, May 12
11:00 PM
Thu, May 13
12:00 AM
Thu, May 13
1:00 AM
Thu, May 13
2:00 AM
Thu, May 13
3:00 AM
Thu, May 13
4:00 AM
Thu, May 13
5:00 AM
Thu, May 13
6:00 AM
Thu, May 13
7:00 AM
Thu, May 13
8:00 AM
Thu, May 13
9:00 AM
Thu, May 13
10:00 AM
Thu, May 13
11:00 AM
Thu, May 13
12:00 PM
Thu, May 13
1:00 PM
Thu, May 13
2:00 PM
Thu, May 13
3:00 PM
Thu, May 13
4:00 PM
Thu, May 13
5:00 PM
Thu, May 13
6:00 PM
Thu, May 13
7:00 PM
Thu, May 13
8:00 PM
Thu, May 13
9:00 PM
Thu, May 13
10:00 PM
Thu, May 13
11:00 PM
Fri, May 14
12:00 AM
Fri, May 14
1:00 AM
Condition
Rain

Rain

Rain

Clouds

Clouds

Clouds

Clouds

Clouds

Clouds

Clouds

Clouds

Clouds

Clouds

Clouds

Rain

Clouds

Rain

Rain

Clouds

Clouds

Clouds

Clouds

Clouds

Clouds

Clouds

Clouds

Clouds

Clouds

Clouds

Clouds

Clouds

Clouds

Clouds

Clouds

Clouds

Clouds

Clouds

Clouds

Clouds

Clouds

Clouds

Clouds

Clouds

Clouds

Clouds

Clouds

Clouds

Clouds
Temperature 41°F40°F40°F41°F41°F42°F43°F44°F45°F46°F47°F47°F47°F48°F49°F49°F49°F49°F49°F48°F46°F45°F44°F43°F43°F42°F42°F42°F41°F42°F43°F44°F46°F47°F48°F49°F49°F50°F51°F52°F52°F52°F52°F51°F48°F46°F46°F45°F
Feels Like 41°F40°F40°F41°F41°F42°F43°F44°F45°F46°F47°F46°F46°F47°F48°F48°F48°F49°F49°F48°F46°F45°F43°F43°F43°F42°F42°F42°F41°F42°F43°F44°F46°F46°F47°F47°F48°F49°F49°F49°F49°F49°F49°F48°F48°F46°F46°F43°F
Cloudiness 52%40%52%64%76%87%99%98%97%95%95%95%94%92%91%83%86%87%79%77%74%56%59%63%64%68%72%99%98%97%97%95%92%76%76%77%80%81%81%65%56%52%51%48%44%18%14%12%
Visibility 6 mi4 mi5 mi6 mi6 mi6 mi6 mi6 mi6 mi6 mi6 mi6 mi6 mi6 mi6 mi6 mi6 mi6 mi6 mi6 mi6 mi6 mi6 mi6 mi6 mi6 mi6 mi6 mi6 mi6 mi6 mi6 mi6 mi6 mi6 mi6 mi6 mi6 mi6 mi6 mi6 mi6 mi6 mi6 mi6 mi6 mi6 mi6 mi
Precipitation 48%48%46%30%24%24%21%10%10%0%1%8%8%12%34%38%42%44%44%39%28%4%0%0%0%0%0%0%0%0%0%0%0%0%0%0%0%0%0%15%14%8%0%0%0%0%0%0%
Humidity 96%100%97%94%91%84%76%71%69%66%66%67%67%66%64%64%63%62%63%67%72%74%74%75%75%75%77%81%85%85%81%77%72%68%66%66%65%62%59%57%56%56%56%62%68%72%73%73%
Dew Point 40°F40°F40°F39°F38°F37°F33°F32°F32°F33°F33°F33°F34°F34°F34°F34°F34°F34°F34°F35°F35°F34°F34°F33°F33°F33°F33°F34°F34°F35°F35°F35°F35°F35°F35°F35°F35°F35°F35°F34°F34°F34°F34°F35°F36°F35°F35°F34°F
Pressure 30.12"30.12"30.12"30.15"30.15"30.18"30.18"30.18"30.18"30.18"30.18"30.15"30.15"30.15"30.15"30.15"30.15"30.12"30.12"30.12"30.12"30.15"30.15"30.15"30.18"30.18"30.18"30.18"30.18"30.18"30.18"30.18"30.18"30.15"30.15"30.15"30.12"30.12"30.09"30.09"30.06"30.03"30.03"30"30"30.03"30.03"30"
Wind Speed 2.9 mph1.7 mph0.8 mph1.6 mph1.5 mph1.4 mph1.1 mph0.3 mph1.2 mph2.1 mph2.8 mph3.4 mph4 mph3.8 mph3.7 mph3.7 mph3.5 mph2.8 mph2.2 mph1.2 mph1 mph2.4 mph3.1 mph2.9 mph2.2 mph0.9 mph1.2 mph2.1 mph1.5 mph0.5 mph0.5 mph1.4 mph2.3 mph3.3 mph4 mph3.8 mph3.4 mph3.6 mph3.5 mph3.3 mph3 mph3 mph2.6 mph2 mph2.1 mph1 mph1.6 mph4 mph
Wind
Direction
281°
W
297°
WNW
24°
NNE
64°
ENE
64°
ENE
72°
ENE
94°
E
176°
S
208°
SSW
220°
SW
221°
SW
238°
WSW
257°
WSW
263°
W
255°
WSW
243°
WSW
243°
WSW
252°
WSW
261°
W
253°
WSW
172°
S
132°
SE
126°
SE
122°
ESE
115°
ESE
112°
ESE
237°
WSW
248°
WSW
284°
WNW
304°
NW
252°
WSW
269°
W
269°
W
266°
W
264°
W
268°
W
267°
W
266°
W
267°
W
266°
W
274°
W
274°
W
275°
W
269°
W
280°
W
315°
NW
63°
ENE
70°
ENE

Daily Forecast

Date High Low Precip. Humidity
Today
May 12

Rain
49 °F
40 °F
51%
67%
Thursday
May 13

Rain
52 °F
41 °F
28%
66%
Friday
May 14

Clouds
56 °F
44 °F
28%
48%
Saturday
May 15

Rain
50 °F
44 °F
79%
60%
Sunday
May 16

Rain
48 °F
40 °F
62%
92%
Monday
May 17

Clouds
50 °F
40 °F
18%
63%
Tuesday
May 18

Rain
56 °F
42 °F
39%
56%
Wednesday
May 19

Rain
60 °F
46 °F
73%
52%
Thursday
May 20

Rain
62 °F
49 °F
44%
48%
Friday
May 21

Rain
63 °F
50 °F
69%
46%
Saturday
May 22

Clouds
56 °F
49 °F
21%
63%
Sunday
May 23

Rain
54 °F
46 °F
52%
69%
Monday
May 24

Rain
52 °F
45 °F
31%
63%
Tuesday
May 25

Clouds
56 °F
45 °F
10%
57%
Wednesday
May 26

Clouds
60 °F
47 °F
0%
52%
Thursday
May 27

Clouds
55 °F
46 °F
45%
55%

Temperature 8-14 Day Outlook



Precipitation 8-14 Day Outlook




Quick Links
Cottonwood Lake News
Cottonwood Lake Photos
Cottonwood Lake Videos




About Us
Contact Us
Site Map
Search Site
Advertise With Us
   
Cottonwood.LakesOnline.com
THE COTTONWOOD LAKE WEBSITE

Copyright 2021, Lakes Online
Privacy    |    Legal